Wind_Speed
78 91 101 103 103 101 97 90 88 91 87 85 84 83 86 86 85 86 88 86 85 81 80 79 78 82 80 80 81 82 85 87 89 93 90 87 80 75 75 73 74 73 69 67
75 86 95 101 103 99 92 91 88 91 93 90 91 93 84 81 81 82 85 85 84 82 83 82 81 79 80 81 82 84 87 88 90 90 81 75 71 70 68 69 67 65 62 61
71 82 93 100 93 90 90 87 86 87 91 94 91 88 88 88 88 85 85 86 86 83 82 80 78 80 81 83 84 85 86 89 88 77 71 68 66 63 62 61 58 56 56 57
75 84 93 79 94 92 86 86 84 85 91 93 91 90 91 87 83 84 83 82 81 80 78 79 81 80 83 84 86 89 88 82 74 68 66 64 60 57 56 55 54 55 57 60
81 85 81 84 80 83 87 83 83 83 87 91 89 87 82 70 69 72 75 76 76 75 76 81 82 83 86 87 86 83 75 71 66 64 63 58 56 56 57 56 54 57 60 63
85 86 83 69 76 78 82 79 79 79 80 82 84 84 75 74 72 77 82 80 78 78 81 82 82 84 83 79 77 71 68 65 63 62 58 55 55 57 57 58 59 60 63 65
83 84 74 74 76 80 83 55 72 73 76 77 76 73 79 80 81 86 86 82 79 81 80 79 79 78 75 72 69 65 63 63 63 60 55 54 55 56 57 59 59 61 64 66
90 85 74 73 77 76 63 66 76 74 67 71 74 76 77 79 82 83 79 74 75 77 75 74 75 72 69 66 63 63 64 63 60 57 55 54 56 57 59 58 59 63 67 69
96 77 69 79 77 77 79 77 78 80 80 78 75 74 75 78 80 78 74 76 75 73 70 72 70 68 66 63 63 64 63 60 58 56 55 55 55 56 57 59 63 67 70 75
98 83 75 81 85 86 84 79 77 77 82 79 79 79 79 83 78 73 74 73 73 71 70 69 67 65 63 64 63 63 60 58 57 57 56 56 56 57 59 61 64 69 73 78
94 85 77 78 81 87 93 90 85 80 82 80 80 79 80 79 72 72 71 70 69 68 68 67 66 65 65 64 63 60 58 57 57 57 57 58 58 59 62 65 67 71 75 79
90 91 83 79 87 91 91 90 88 86 84 81 78 77 78 74 71 69 69 70 67 66 66 66 65 65 63 62 59 58 57 58 57 57 58 59 60 61 63 66 68 73 76 81
94 98 87 79 85 88 87 88 83 80 79 78 77 76 74 70 69 70 70 68 67 67 66 64 63 62 60 58 58 58 58 58 59 57 59 61 61 63 64 68 70 75 77 83
92 97 89 84 84 91 89 88 84 80 76 74 73 72 69 67 66 66 66 65 65 65 65 62 60 59 58 58 58 59 59 60 60 60 60 61 64 66 69 72 73 77 81 86
85 97 96 94 93 90 89 88 81 76 74 71 69 66 63 61 62 64 63 60 58 59 59 58 57 58 58 58 59 59 61 61 62 63 63 65 68 70 73 75 78 82 85 89
89 98 102 99 94 93 88 85 80 76 73 70 67 64 64 65 63 62 62 60 58 61 58 57 59 59 59 59 59 60 61 62 64 65 67 69 72 75 76 78 82 86 90 94
88 93 102 102 96 89 84 81 79 78 76 73 71 70 68 65 65 65 63 61 62 60 57 59 60 60 59 60 61 61 63 64 66 68 69 72 75 76 77 79 83 87 90 95
83 94 104 105 99 93 89 85 82 79 76 76 75 73 68 66 67 67 65 62 61 58 59 61 62 60 61 63 63 64 66 67 68 69 72 76 78 79 80 82 85 88 92 98
81 93 105 104 100 95 91 87 83 83 82 79 76 70 71 71 69 67 63 61 58 59 63 61 60 63 65 64 65 67 70 70 69 71 74 77 80 82 84 85 88 92 96 101
85 96 105 106 103 97 93 89 86 84 83 81 78 76 72 71 69 66 65 63 61 62 60 63 64 65 65 66 66 70 72 71 72 74 77 81 85 85 85 87 91 96 100 103
86 96 102 106 103 98 94 90 86 81 77 74 73 74 75 74 72 69 65 63 66 65 62 63 65 65 66 66 70 74 74 74 76 78 81 85 85 85 87 91 95 99 102 106
86 95 103 106 104 100 96 92 87 83 77 74 75 74 73 71 70 69 69 68 66 65 67 68 66 66 67 70 74 76 77 77 79 82 85 86 87 88 91 95 99 102 105 108
89 95 103 105 102 100 98 94 88 83 80 78 78 79 78 77 74 72 71 70 68 68 68 69 70 71 72 75 77 78 78 81 84 84 86 88 90 93 96 99 103 105 108 111
91 96 101 106 105 104 102 97 93 89 87 86 85 84 81 78 75 75 74 72 72 73 73 73 74 77 79 79 80 81 82 84 86 88 90 93 95 98 100 103 106 108 111 113
88 93 97 103 106 105 103 101 98 95 93 90 87 85 82 80 78 78 78 77 76 77 78 79 80 81 82 82 84 86 87 89 91 94 96 98 100 102 104 107 109 111 114 116
85 92 96 101 106 106 105 104 101 98 94 91 89 87 86 84 83 83 83 82 82 83 83 83 84 84 85 87 89 91 92 94 96 98 100 102 103 106 108 110 112 114 116 116
82 89 94 98 103 105 105 104 102 99 97 95 93 92 91 89 88 87 87 86 86 87 87 87 88 88 90 92 93 94 96 98 99 101 104 105 107 110 112 114 115 116 117 116
Wind_Direction
225 221 221 222 223 222 223 225 225 222 220 224 225 231 235 239 245 248 252 255 258 260 263 266 269 270 271 273 275 278 280 283 285 289 292 293 293 295 297 298 300 302 301 302
221 224 222 222 222 224 225 226 226 225 221 222 226 231 236 239 241 244 248 253 256 260 263 266 267 267 269 272 275 277 281 283 287 290 291 291 293 295 297 299 300 301 304 306
220 222 223 222 222 225 226 227 226 226 227 227 230 234 235 237 240 246 250 253 256 259 261 263 263 266 269 272 276 277 281 283 287 288 289 292 292 295 299 300 301 305 309 312
219 221 223 224 225 222 223 225 225 225 227 231 233 235 237 240 245 249 251 253 254 256 257 259 263 267 269 272 274 278 280 284 285 286 289 289 291 297 299 301 304 308 310 312
221 221 221 218 225 229 227 224 225 226 227 230 233 236 239 241 241 244 246 248 251 254 256 259 263 266 269 272 274 278 281 281 284 287 287 285 291 295 297 299 302 307 309 312
222 220 219 217 221 226 229 227 226 227 229 231 233 234 237 240 241 242 243 245 249 254 257 261 264 267 269 273 276 278 279 283 285 284 283 283 289 293 296 298 300 304 311 313
222 224 215 215 220 226 226 218 231 230 229 231 235 237 237 239 240 243 247 250 254 257 259 261 263 267 271 273 275 277 281 281 281 281 280 281 287 291 296 298 302 306 311 313
223 221 215 214 220 227 228 219 224 224 225 228 228 230 234 237 240 245 248 250 250 254 258 262 264 268 270 273 276 277 278 278 279 279 280 280 285 289 295 300 306 311 314 316
224 219 209 214 217 220 221 221 222 226 226 227 229 231 235 238 241 243 245 248 252 257 259 261 265 269 271 273 274 275 277 277 278 279 278 279 285 288 294 300 305 309 314 319
223 216 209 212 213 216 220 221 223 222 228 230 231 233 237 240 242 245 249 251 254 257 260 263 266 269 271 272 273 275 275 277 277 277 277 281 284 287 292 298 304 307 311 316
224 219 212 212 215 217 221 222 222 223 227 229 232 235 238 242 245 247 250 252 255 257 260 263 266 268 269 271 272 272 274 276 276 276 277 280 284 286 292 298 302 306 310 314
223 218 215 212 215 215 219 222 223 224 228 231 233 235 238 241 244 246 249 252 255 259 261 263 264 266 267 269 269 271 274 275 275 276 278 280 283 285 290 298 303 307 311 313
218 218 214 213 219 224 221 222 221 224 226 229 232 235 237 239 242 245 248 251 254 256 259 261 262 264 266 266 269 271 273 274 276 276 278 283 282 285 291 297 302 307 311 313
216 216 213 213 218 220 223 226 224 223 224 227 230 233 237 240 243 246 248 250 252 255 257 259 261 262 263 266 269 271 272 275 274 277 280 284 286 288 292 297 302 307 311 314
213 213 210 213 217 221 223 226 226 225 226 227 228 231 235 239 242 245 248 252 255 257 257 257 259 261 263 266 268 270 273 275 275 278 282 286 288 292 295 299 303 308 313 314
212 209 209 212 215 220 220 226 227 226 226 227 228 230 233 235 238 243 245 247 249 250 253 256 258 261 264 266 269 271 274 276 278 280 285 290 294 295 297 300 304 309 313 314
211 206 209 211 214 219 222 223 226 227 226 225 227 229 232 235 237 240 243 245 246 249 252 255 258 261 264 267 269 272 275 278 279 282 286 291 295 296 298 300 304 309 312 314
208 206 208 211 211 215 218 220 223 226 228 229 229 230 230 233 236 238 240 243 247 249 253 256 260 264 266 268 270 273 276 279 281 285 287 290 295 296 298 300 305 309 312 314
206 206 209 210 211 214 217 219 220 223 226 228 230 231 231 232 235 238 241 244 247 250 253 258 264 265 266 270 272 274 276 279 283 287 288 292 295 297 298 301 305 309 311 313
204 206 208 209 211 212 217 219 220 221 224 227 229 231 233 234 237 239 240 242 245 251 257 259 263 266 268 270 274 276 278 281 284 286 289 292 296 297 299 302 306 309 311 314
203 205 207 209 210 212 216 219 223 224 226 228 230 232 233 233 235 237 240 243 246 251 257 262 265 268 269 272 275 277 279 282 284 287 290 293 296 297 300 304 306 309 312 314
203 203 206 209 209 211 215 218 221 223 225 227 230 233 235 236 236 238 241 244 249 254 257 262 267 270 272 274 275 278 280 284 286 289 291 293 295 297 301 304 306 309 311 313
202 203 206 209 209 213 215 218 220 223 224 227 229 231 233 234 236 239 243 247 252 257 261 264 267 270 273 275 277 280 283 285 286 289 291 293 296 299 301 304 306 309 311 313
203 204 206 208 210 212 215 217 219 221 223 226 229 231 234 235 238 242 246 249 253 257 261 265 267 269 272 275 278 280 282 284 286 289 292 294 296 298 301 304 306 308 311 313
204 207 207 209 211 213 216 218 219 221 223 226 229 232 236 238 242 245 249 252 256 259 261 264 267 271 273 277 279 281 283 286 288 290 292 294 295 298 301 303 306 308 310 312
204 206 208 211 212 215 217 219 221 223 225 228 231 234 236 240 243 246 250 253 256 260 263 266 269 272 275 277 279 281 283 285 287 289 291 293 296 298 300 303 305 307 310 312
204 206 209 211 214 215 217 220 222 224 226 228 231 234 237 240 243 247 250 253 257 260 263 266 269 272 274 276 278 280 282 285 287 289 291 294 295 297 300 302 304 307 310 311
Height
10409 10415 10426 10441 10452 10461 10477 10506 10522 10547 10555 10564 10568 10568 10568 10579 10592 10599 10599 10604 10606 10614 10621 10627 10631 10626 10627 10627 10627 10624 10621 10619 10615 10611 10606 10599 10591 10583 10576 10569 10560 10551 10542 10535
10391 10400 10411 10423 10437 10454 10480 10491 10510 10521 10536 10545 10545 10552 10565 10572 10579 10584 10583 10586 10593 10601 10606 10613 10611 10610 10612 10611 10611 10608 10606 10602 10598 10594 10589 10583 10575 10568 10563 10555 10545 10537 10529 10522
10379 10385 10391 10397 10437 10457 10465 10484 10499 10514 10528 10529 10540 10548 10554 10558 10562 10567 10571 10575 10581 10587 10592 10595 10593 10594 10596 10596 10594 10591 10590 10586 10582 10578 10573 10567 10560 10555 10548 10540 10532 10524 10516 10508
10359 10360 10367 10427 10412 10432 10450 10467 10486 10501 10509 10516 10525 10531 10534 10546 10556 10555 10557 10562 10568 10572 10576 10576 10576 10580 10579 10579 10577 10575 10574 10570 10567 10562 10557 10552 10546 10540 10534 10527 10519 10511 10503 10495
10333 10346 10377 10388 10409 10428 10440 10459 10467 10482 10491 10501 10510 10517 10532 10539 10538 10539 10541 10546 10551 10557 10559 10558 10562 10562 10562 10563 10560 10559 10558 10555 10551 10546 10542 10537 10532 10526 10520 10513 10507 10500 10491 10482
10316 10329 10354 10400 10396 10402 10417 10446 10459 10469 10478 10485 10493 10510 10521 10518 10519 10518 10519 10526 10537 10542 10541 10543 10547 10546 10546 10546 10544 10545 10542 10538 10535 10532 10528 10523 10518 10513 10507 10500 10493 10486 10478 10468
10311 10320 10357 10372 10381 10385 10396 10456 10439 10452 10459 10468 10485 10498 10486 10494 10497 10496 10504 10518 10526 10524 10524 10530 10530 10530 10532 10531 10530 10529 10526 10524 10521 10517 10514 10509 10505 10500 10494 10487 10480 10472 10464 10455
10290 10305 10343 10360 10366 10379 10411 10415 10413 10423 10439 10450 10455 10461 10466 10473 10475 10483 10494 10504 10502 10505 10511 10514 10514 10517 10517 10515 10515 10513 10511 10509 10505 10502 10499 10496 10491 10486 10481 10473 10465 10456 10447 10438
10270 10309 10338 10341 10353 10363 10368 10386 10397 10406 10416 10424 10435 10446 10452 10454 10459 10470 10479 10481 10487 10492 10496 10497 10500 10501 10500 10499 10500 10498 10496 10493 10490 10488 10485 10482 10478 10473 10467 10460 10451 10442 10432 10422
10255 10291 10311 10319 10328 10339 10349 10364 10376 10389 10395 10410 10421 10429 10433 10432 10447 10460 10463 10468 10471 10477 10480 10482 10485 10484 10484 10485 10485 10482 10480 10478 10476 10473 10470 10468 10464 10459 10453 10446 10439 10429 10419 10409
10249 10283 10297 10308 10320 10325 10331 10342 10357 10372 10380 10391 10400 10410 10415 10421 10436 10441 10447 10451 10457 10461 10464 10467 10468 10468 10469 10470 10468 10466 10465 10463 10461 10458 10456 10453 10449 10444 10439 10432 10424 10415 10406 10395
10246 10262 10277 10290 10288 10289 10305 10319 10335 10349 10363 10375 10383 10391 10397 10409 10417 10425 10430 10434 10442 10445 10447 10451 10452 10452 10453 10453 10453 10452 10450 10448 10446 10444 10442 10439 10435 10430 10425 10418 10409 10400 10390 10380
10225 10235 10263 10277 10284 10293 10299 10304 10319 10334 10345 10357 10366 10373 10383 10394 10401 10407 10413 10421 10426 10428 10432 10435 10436 10437 10438 10438 10438 10437 10435 10433 10431 10430 10427 10423 10420 10416 10410 10404 10396 10387 10376 10365
10198 10218 10250 10261 10271 10266 10281 10291 10303 10317 10331 10342 10352 10361 10371 10381 10388 10394 10400 10404 10410 10414 10416 10420 10421 10422 10423 10423 10423 10422 10420 10418 10416 10415 10412 10408 10403 10398 10391 10385 10379 10371 10360 10347
10181 10199 10222 10228 10240 10256 10267 10275 10294 10310 10319 10330 10340 10349 10359 10367 10372 10376 10383 10391 10398 10400 10400 10403 10406 10406 10407 10408 10407 10406 10404 10402 10401 10398 10395 10391 10386 10380 10374 10367 10358 10348 10339 10327
10154 10172 10194 10212 10224 10237 10251 10267 10285 10297 10308 10318 10328 10336 10341 10345 10353 10361 10368 10376 10381 10379 10386 10390 10389 10390 10392 10392 10392 10391 10388 10387 10385 10382 10378 10373 10368 10362 10356 10348 10339 10330 10318 10306
10134 10160 10176 10192 10211 10229 10251 10260 10274 10283 10291 10301 10308 10313 10322 10331 10338 10345 10353 10358 10362 10367 10372 10373 10373 10374 10376 10375 10375 10374 10373 10371 10369 10366 10362 10358 10352 10346 10340 10333 10325 10316 10304 10292
10127 10141 10155 10170 10191 10207 10221 10237 10253 10268 10280 10285 10290 10299 10310 10318 10323 10327 10334 10342 10348 10355 10356 10356 10356 10360 10360 10358 10360 10358 10356 10355 10353 10350 10346 10341 10335 10329 10323 10316 10310 10300 10289 10277
10111 10125 10137 10157 10176 10192 10205 10220 10235 10246 10256 10267 10278 10290 10294 10298 10306 10314 10322 10330 10337 10338 10336 10340 10343 10342 10341 10344 10344 10342 10339 10338 10337 10334 10329 10323 10317 10311 10305 10299 10291 10281 10271 10260
10089 10105 10120 10140 10156 10175 10190 10202 10214 10226 10239 10251 10262 10272 10282 10288 10294 10301 10307 10313 10318 10320 10325 10323 10325 10326 10328 10328 10329 10324 10321 10322 10320 10316 10311 10305 10299 10293 10287 10280 10271 10262 10251 10240
10075 10090 10108 10124 10145 10162 10176 10188 10202 10218 10230 10242 10252 10259 10263 10268 10275 10284 10294 10300 10299 10303 10308 10309 10309 10311 10312 10313 10310 10304 10306 10305 10302 10298 10293 10287 10281 10274 10268 10260 10252 10243 10232 10221
10062 10077 10093 10109 10129 10146 10160 10172 10187 10201 10216 10227 10234 10243 10251 10257 10264 10270 10275 10280 10286 10291 10290 10291 10295 10295 10294 10293 10290 10289 10288 10287 10283 10278 10273 10268 10262 10255 10249 10241 10233 10224 10214 10202
10048 10065 10079 10098 10115 10131 10143 10159 10174 10188 10200 10210 10219 10226 10231 10237 10245 10253 10260 10264 10270 10273 10275 10276 10277 10277 10277 10274 10273 10271 10270 10267 10263 10259 10254 10248 10242 10235 10229 10222 10213 10204 10193 10183
10036 10050 10065 10080 10096 10110 10124 10145 10158 10171 10180 10187 10196 10204 10216 10226 10233 10239 10244 10250 10253 10255 10256 10259 10260 10258 10257 10256 10255 10252 10251 10246 10243 10239 10234 10228 10222 10216 10209 10201 10193 10183 10174 10163
10027 10040 10053 10069 10084 10097 10112 10126 10139 10150 10160 10172 10183 10193 10202 10212 10219 10224 10228 10234 10237 10238 10238 10240 10240 10240 10238 10238 10235 10233 10229 10226 10223 10218 10213 10207 10201 10195 10188 10180 10172 10163 10154 10143
10017 10030 10043 10055 10068 10082 10099 10111 10124 10136 10150 10161 10171 10180 10187 10195 10202 10206 10209 10214 10218 10218 10220 10221 10221 10221 10221 10218 10214 10212 10209 10205 10201 10196 10191 10185 10181 10175 10167 10160 10151 10143 10134 10123
10001 10014 10029 10043 10055 10070 10085 10098 10112 10126 10136 10145 10153 10160 10168 10175 10182 10187 10191 10196 10199 10199 10201 10202 10202 10202 10200 10196 10193 10191 10187 10183 10179 10174 10168 10164 10159 10153 10146 10138 10131 10122 10113 10102